{"data":{"norad_id":57442,"intl_designator":"2023-105N","name":"STARLINK-30146","alt_names":[],"object_type":"PAYLOAD","status":"ACTIVE","operator":null,"country":"US","launch_date":"2023-07-24","launch_site_code":"AFETR","launch_vehicle":null,"mission":null,"orbit_class":"UNKNOWN","rcs_meters":null,"size_class":null,"mass_kg":null,"dimensions":null,"purposes":["comms"],"wikipedia_slug":null,"has_3d_model":false,"image_url":null,"decayed_at":null,"tle_current":{"epoch":"2026-05-25T03:33:58.930272Z","epoch_age_seconds":58098,"freshness":"FRESH","line1":"1 57442U 23105N   26145.14859873 -.00003888  00000+0 -13187-3 0  9997","line2":"2 57442  43.0013 188.1847 0001492 269.8356  90.2325 15.27570806157338","mean_motion":15.27570806,"eccentricity":0.0001492,"inclination_deg":43.0013,"raan_deg":188.1847,"arg_perigee_deg":269.8356,"mean_anomaly_deg":90.2325,"bstar":-0.00013187,"rev_number":15733,"period_min":94.267316077524,"perigee_km":482.05293324821,"apogee_km":484.10031939431,"semimajor_km":6861.2136263213,"source":"CELESTRAK","updated_at":"2026-05-25T13:38:18.320478Z"}}}